{"data":{"norad_id":65980,"intl_designator":"2025-230G","name":"SDA_1670","alt_names":[],"object_type":"PAYLOAD","status":"ACTIVE","operator":null,"country":"US","launch_date":"2025-10-15","launch_site_code":"AFWTR","launch_vehicle":null,"mission":null,"orbit_class":"UNKNOWN","rcs_meters":null,"size_class":null,"mass_kg":null,"dimensions":null,"purposes":[],"wikipedia_slug":null,"has_3d_model":false,"image_url":null,"decayed_at":null,"tle_current":{"epoch":"2026-09-20T13:57:44.813088Z","epoch_age_seconds":133370,"freshness":"FRESH","line1":"1 65980U 25230G   26263.58176867  .00000036  00000+0  23733-4 0  9997","line2":"2 65980  81.2976 124.6168 0000680  63.9972 296.1251 13.78094508 46923","mean_motion":13.78094508,"eccentricity":6.8e-5,"inclination_deg":81.2976,"raan_deg":124.6168,"arg_perigee_deg":63.9972,"mean_anomaly_deg":296.1251,"bstar":2.3733e-5,"rev_number":4692,"period_min":104.49210788089,"perigee_km":970.15333155365,"apogee_km":971.15276700036,"semimajor_km":7348.790049277,"source":"CELESTRAK","updated_at":"2026-09-21T09:00:15.687530Z"}}}